Find Starlink 5341

NORAD ID: 55287 Int'l Des: 2023-010 Owner: SPXS Country: US Constellation: starlink operational
LEOCIRCULAR

Live Position

Loading 3D Globe...

About Starlink 5341

Description loading...

Upcoming Passes

Passes for default location (London). Set your location on the main map for personalized predictions.

Altitude History

Loading altitude history...

Two-Line Element Set

1 55287U 23010U 26127.28622826 -.00000977 00000-0 -74071-4 0 9995
2 55287 70.0000 216.8561 0003312 270.6823 89.3956 14.98326293182538
Epoch: May 7, 2026 • Age: 9 hours

Current Status

Altitude 595.2 km
Velocity 7.56 km/s
Sub-Earth Point -69.75°S, 8.26°E
Launch Date Jan 19, 2023
Age 3.2 years
Type internet

Technical Details

Classification Payload
Mass 305.00 kg
Dry Mass 290.00 kg
Total Mass 305.00 kg
Length 0.20 m
Diameter 2.80 m
Span 9.00 m
Shape Box + pan
Manufacturer SPXS
Bus Type Starlink
Phase Status In Orbit
Owner/State SPXS/US

Most Searched